Hourly Data Report for May 23, 2017

TORONTO CITY
ONTARIO

43°40'00.000" N
79°24'00.000" W
112.50 m
6158355
71508
XTO

Download Data

Hourly Data (May 2017)
Hourly Data Report for May 23, 2017
TIME
LST
Temp Definition
°C
Dew Point Definition
°C
Rel Hum Definition
%
Precip. Amount Definition
mm

Wind Dir Definition
10's deg

Wind Spd Definition
km/h
Visibility Definition
km
Stn Press Definition
kPa
Hmdx Definition


Wind Chill Definition


Weather Definition


00:00 11.4 7.8 79 0.0 LegendMM LegendMM   99.99     LegendNANA
01:00 11.0 7.7 80 0.0 LegendMM LegendMM   99.98     LegendNANA
02:00 10.7 7.6 82 0.0 LegendMM LegendMM   99.99     LegendNANA
03:00 10.3 7.5 83 0.0 LegendMM LegendMM   99.94     LegendNANA
04:00
05:00
06:00 11.6 8.2 79 0.0 LegendMM LegendMM   99.88     LegendNANA
07:00
08:00 14.8 9.3 69 0.0 LegendMM LegendMM   99.86     LegendNANA
09:00 15.7 9.0 65 0.0 LegendMM LegendMM   99.86     LegendNANA
10:00 16.8 9.2 61 0.0 LegendMM LegendMM   99.83     LegendNANA
11:00 18.4 9.8 57 0.0 LegendMM LegendMM   99.78     LegendNANA
12:00 20.3 10.0 52 0.0 LegendMM LegendMM   99.72     LegendNANA
13:00 21.2 11.6 54 0.0 LegendMM LegendMM   99.68     LegendNANA
14:00 21.3 10.5 50 0.0 LegendMM LegendMM   99.62     LegendNANA
15:00 20.9 9.2 47 0.0 LegendMM LegendMM   99.56     LegendNANA
16:00 19.4 9.6 53 0.0 LegendMM LegendMM   99.51     LegendNANA
17:00 18.5 9.6 56 0.0 LegendMM LegendMM   99.50     LegendNANA
18:00 19.1 10.2 56 0.0 LegendMM LegendMM   99.48     LegendNANA
19:00 18.7 10.9 61 0.0 LegendMM LegendMM   99.49     LegendNANA
20:00 19.5 10.1 55 0.0 LegendMM LegendMM   99.43     LegendNANA
21:00 18.7 10.6 59 0.0 LegendMM LegendMM   99.44     LegendNANA
22:00 14.2 9.1 71 0.0 LegendMM LegendMM   99.44     LegendNANA
23:00 15.0 9.4 69 0.0 LegendMM LegendMM   99.40     LegendNANA

Notes on Data Quality.

Legend

  • E = Estimated
  • M = Missing
  • NA = Not Available*
  • [empty] = Indicates an unobserved value
Date modified: